Radiation Dose measured at exhaust stack monitor of Fukushima Daiichi Nuclear Power Station
Date,Time,Unit 5 6 shared exhaust cylinders,Wind Direction,Wind Velocity(m/s)
2024/05/20,00:00,3.6,south-southwest,3.4
2024/05/20,00:10,3.5,south-southwest,3.8
2024/05/20,00:20,3.6,south-southwest,3.9
2024/05/20,00:30,3.5,south-southwest,4.6
2024/05/20,00:40,3.7,south,4.6
2024/05/20,00:50,3.6,south,6.0
2024/05/20,01:00,3.7,south-southwest,6.0
2024/05/20,01:10,3.7,south,5.7
2024/05/20,01:20,3.7,south-southwest,5.3
2024/05/20,01:30,3.3,southwest,6.1
2024/05/20,01:40,3.7,west-southwest,6.1
2024/05/20,01:50,3.5,west,7.4
2024/05/20,02:00,3.6,west,8.6
2024/05/20,02:10,3.6,west-southwest,7.3
2024/05/20,02:20,3.6,west,6.5
2024/05/20,02:30,3.6,west-northwest,5.0
2024/05/20,02:40,3.5,west,3.5
2024/05/20,02:50,3.7,west,2.6
2024/05/20,03:00,3.6,west-southwest,1.9
2024/05/20,03:10,3.6,south-southwest,1.5
2024/05/20,03:20,3.6,south,3.0
2024/05/20,03:30,3.6,southwest,4.4
2024/05/20,03:40,3.6,south-southwest,6.2
2024/05/20,03:50,3.6,southwest,5.8
2024/05/20,04:00,3.7,southwest,6.3
2024/05/20,04:10,3.6,southwest,5.4
2024/05/20,04:20,3.6,southwest,5.0
2024/05/20,04:30,3.6,south-southwest,3.8
2024/05/20,04:40,3.7,southwest,3.8
2024/05/20,04:50,3.7,southwest,4.5
2024/05/20,05:00,3.7,southwest,3.9
2024/05/20,05:10,3.6,southwest,2.6
2024/05/20,05:20,3.6,southwest,1.5
2024/05/20,05:30,3.8,south,0.9
2024/05/20,05:40,3.5,south,1.2
2024/05/20,05:50,3.5,south-southeast,0.9
2024/05/20,06:00,3.7,southeast,0.8
2024/05/20,06:10,3.7,northeast,0.9
2024/05/20,06:20,3.6,north-northwest,0.9
2024/05/20,06:30,3.7,northwest,0.6
2024/05/20,06:40,3.6,-,CALM
2024/05/20,06:50,3.7,-,CALM
2024/05/20,07:00,3.7,south-southeast,0.6
2024/05/20,07:10,3.6,east-southeast,0.6
2024/05/20,07:20,3.6,southeast,0.9
2024/05/20,07:30,3.7,south-southeast,1.7
2024/05/20,07:40,3.8,south-southeast,2.6
2024/05/20,07:50,3.8,southeast,3.2
2024/05/20,08:00,3.7,east-southeast,3.8
2024/05/20,08:10,3.6,southeast,4.8
2024/05/20,08:20,3.6,southeast,3.8
2024/05/20,08:30,3.4,south-southeast,4.0
2024/05/20,08:40,3.6,south,4.5
2024/05/20,08:50,3.5,south,4.9
2024/05/20,09:00,3.6,south,5.2
2024/05/20,09:10,3.6,-,CALM
2024/05/20,09:20,3.5,south,6.8
2024/05/20,09:30,3.8,-,CALM
2024/05/20,09:40,3.6,south,3.6
2024/05/20,09:50,3.7,south-southwest,3.5
2024/05/20,10:00,3.6,south,4.1
2024/05/20,10:10,3.7,south-southwest,4.0
2024/05/20,10:20,3.5,south-southwest,3.3
2024/05/20,10:30,3.5,south,2.8
2024/05/20,10:40,3.6,south-southeast,2.5
2024/05/20,10:50,3.6,east-southeast,2.2
2024/05/20,11:00,3.5,southeast,4.7
2024/05/20,11:10,3.6,east-southeast,7.2
2024/05/20,11:20,3.6,southeast,6.2
2024/05/20,11:30,3.7,south,5.0
2024/05/20,11:40,3.6,south,3.5
2024/05/20,11:50,3.6,south-southwest,3.2
2024/05/20,12:00,3.5,south-southwest,3.1
2024/05/20,12:10,3.6,south,4.1
2024/05/20,12:20,3.6,south,4.7
2024/05/20,12:30,3.6,south,4.8
2024/05/20,12:40,3.5,south,5.7
2024/05/20,12:50,3.6,south,7.2
2024/05/20,13:00,3.6,south,8.1
2024/05/20,13:10,3.7,south-southeast,6.4
2024/05/20,13:20,3.6,south,4.9
2024/05/20,13:30,3.6,south,5.6
2024/05/20,13:40,3.4,south-southeast,8.6
2024/05/20,13:50,3.6,south-southeast,8.0
2024/05/20,14:00,3.6,south-southeast,7.3
2024/05/20,14:10,3.7,south,7.3
2024/05/20,14:20,3.5,south-southeast,7.9
2024/05/20,14:30,3.7,south-southeast,7.2
2024/05/20,14:40,3.7,south-southeast,7.6
2024/05/20,14:50,3.5,south-southeast,9.1
2024/05/20,15:00,3.5,south,9.5
2024/05/20,15:10,3.5,south-southeast,9.1
2024/05/20,15:20,3.7,south-southeast,7.3
2024/05/20,15:30,3.5,south-southeast,8.7
2024/05/20,15:40,3.5,south-southeast,7.7
2024/05/20,15:50,3.7,south-southeast,5.8
2024/05/20,16:00,3.7,south-southeast,7.3
2024/05/20,16:10,3.7,south-southeast,8.2
2024/05/20,16:20,3.7,south,7.1
2024/05/20,16:30,3.8,south-southeast,8.6
2024/05/20,16:40,3.5,south,5.7
2024/05/20,16:50,3.6,south,4.2
2024/05/20,17:00,3.7,south,2.3
2024/05/20,17:10,3.4,south,1.5
2024/05/20,17:20,3.6,southeast,2.0
2024/05/20,17:30,3.6,south-southeast,2.0
2024/05/20,17:40,3.7,south-southeast,2.5
2024/05/20,17:50,3.6,south,2.0
2024/05/20,18:00,3.6,west-southwest,2.0
2024/05/20,18:10,3.6,west-southwest,1.5
2024/05/20,18:20,3.5,west-southwest,1.5
2024/05/20,18:30,3.6,west,2.3
2024/05/20,18:40,3.7,west,1.2
2024/05/20,18:50,3.6,west-northwest,0.6
2024/05/20,19:00,3.6,west-northwest,1.4
2024/05/20,19:10,3.7,northwest,1.5
2024/05/20,19:20,3.6,west,1.1
2024/05/20,19:30,3.7,west,1.4
2024/05/20,19:40,3.5,northwest,2.8
2024/05/20,19:50,3.6,west-northwest,2.9
2024/05/20,20:00,3.7,northwest,2.0
2024/05/20,20:10,3.6,north,3.7
2024/05/20,20:20,3.6,north-northwest,3.2
2024/05/20,20:30,3.7,north-northwest,4.3
2024/05/20,20:40,3.7,north,4.7
2024/05/20,20:50,3.9,north-northwest,3.8
2024/05/20,21:00,3.6,north-northwest,3.0
2024/05/20,21:10,3.8,north-northwest,3.7
2024/05/20,21:20,3.6,northwest,3.2
2024/05/20,21:30,3.6,northwest,3.1
2024/05/20,21:40,3.7,north-northwest,2.3
2024/05/20,21:50,3.7,northwest,2.0
2024/05/20,22:00,3.6,west-northwest,2.9
2024/05/20,22:10,3.7,northwest,5.5
2024/05/20,22:20,3.6,northwest,5.0
2024/05/20,22:30,3.7,northwest,5.2
2024/05/20,22:40,3.6,northwest,5.2
2024/05/20,22:50,3.5,northwest,4.7
2024/05/20,23:00,3.7,northwest,3.9
2024/05/20,23:10,3.6,northwest,2.6
2024/05/20,23:20,3.7,northwest,3.1
2024/05/20,23:30,3.7,northwest,1.7
2024/05/20,23:40,3.7,northwest,2.0
2024/05/20,23:50,3.5,northwest,1.7
